Regional Weather Roundup
Issued by NWS

Home | Current Version | Previous Version | Graphics & Text | Print | Product List | Glossary On
Versions: 1 2 3 4 5 6 7 8 9 10 11 12 13 14 15 16 17 18 19 20 21 22 23 24 25 26 27 28 29 30 31 32 33 34 35 36 37 38 39 40 41 42 43 44 45 46 47 48 49 50
000
ASUS43 KIND 170100
RWRIN

WEATHER ROUNDUP FOR INDIANA
NATIONAL WEATHER SERVICE INDIANAPOLIS IN
900 PM EDT WED AUG 16 2017

NOTE: "FAIR" INDICATES FEW OR NO CLOUDS BELOW 12,000 FEET WITH NO
SIGNIFICANT WEATHER AND/OR OBSTRUCTIONS TO VISIBILITY.

* - STATION DOES NOT REPORT WEATHER SUCH AS PRECIPITATION OR FOG.

+ - STATION NOT QUALITY CONTROLLED BY THE NATIONAL WEATHER SERVICE.
    USE DATA WITH CAUTION...ESPECIALLY DEWPOINT AND RELATIVE
    HUMIDITY OBSERVATIONS.

INZ001>003-010>013-019-020-170200-
NORTHWEST INDIANA

CITY           SKY/WX    TMP DP  RH WIND       PRES   REMARKS
GARY /AIRPORT/ CLOUDY    82  72  69 VRB5      29.89S
MICHIGAN CITY+ CLOUDY    79  68  69 CALM      29.91S
MONTICELLO +   PTCLDY    81  71  71 S5        29.91F
RENSSELAER +   CLOUDY    79  68  69 SE5       29.91S

$$

LMZ046-743>745-170200-
SOUTHERN LAKE MICHIGAN

STATION/POSITION TIME  TEMP    WIND        PRES    WAVE
                       AIR SEA DIR/SP/G            HT
                 (UTC) (F)     (DEG/KT/KT) (MB)    (FT)
BURNS HARBOR     0040   83     170/  8/ 13 1012.5S
MICHIGAN CITY    0030   82     120/  7/  9   N/A
5NW MICH CITY    0050   80 76  150/  6/  8   N/A     1

$$

INZ004-005-014>016-021>024-170200-
NORTH CENTRAL INDIANA

CITY           SKY/WX    TMP DP  RH WIND       PRES   REMARKS
ELKHART        CLOUDY    82  66  57 CALM      29.93S
GOSHEN         CLOUDY    80  67  64 SE6       29.94S
SOUTH BEND     CLOUDY    83  69  62 SE10      29.92F
WARSAW +       PTCLDY    77  70  78 CALM      29.94S

$$

INZ006>009-017-018-025>027-170200-
NORTHEAST INDIANA

CITY           SKY/WX    TMP DP  RH WIND       PRES   REMARKS
FORT WAYNE     PTCLDY    79  67  66 S3        29.96S
KENDALLVILLE + CLEAR     77  67  70 SE3       29.96F

$$

INZ028-029-035-036-043>045-051>053-170200-
WEST CENTRAL INDIANA

CITY           SKY/WX    TMP DP  RH WIND       PRES   REMARKS
LAFAYETTE      PTCLDY    80  72  76 S6        29.91S
TERRE HAUTE    CLOUDY    80  73  79 S7        29.93F

$$

INZ030>032-037>040-046>048-054>057-064-065-170200-
CENTRAL INDIANA

CITY           SKY/WX    TMP DP  RH WIND       PRES   REMARKS
COLUMBUS       PTCLDY    81  68  65 SW6       29.97R
INDIANAPOLIS   MOCLDY    80  73  79 S7        29.94F
-EAGLE CREEK   CLOUDY    82  68  62 S5        29.94F
KOKOMO +       PTCLDY    78  72  81 S6        29.95S
MT COMFORT *+  PTCLDY    81  72  74 S3        29.96S
SHELBYVILLE    CLOUDY    80  71  74 S5        29.95S

$$

INZ033-034-041-042-049-050-058-059-170200-
EAST CENTRAL INDIANA

CITY           SKY/WX    TMP DP  RH WIND       PRES   REMARKS
MUNCIE         PTCLDY    83  68  60 S5        29.96F
RICHMOND +     CLEAR     73  72  94 CALM      30.00S

$$

INZ060-061-067>069-081>083-085>088-170200-
SOUTHWEST INDIANA

CITY           SKY/WX    TMP DP  RH WIND       PRES   REMARKS
EVANSVILLE     PTCLDY    80  70  71 S5        29.95F
HUNTINGBURG +  CLOUDY    80  76  87 SE3       29.96S

$$

INZ062-063-066-070>080-084-089>092-170200-
SOUTH CENTRAL AND SOUTHEAST INDIANA

CITY           SKY/WX    TMP DP  RH WIND       PRES   REMARKS
BLOOMINGTON    PTCLDY    79  71  76 S5        29.96S
MADISON *+     CLOUDY    79  72  78 CALM      30.00R
SEYMOUR +      CLOUDY    81  72  74 CALM      29.96S

$$




USA.gov is the U.S. government's official web portal to all federal, state and local government web resources and services.